RH
60 60 63 47 44 39 34 35 36 34 28 30 29 28 24 20 24 25 22 22 22 23 19 18 33 45 52 64 73 77 80 82 88 92 90 86 88 85 85 81 74 76 78 75
60 64 45 43 45 45 44 44 40 36 31 33 32 32 26 25 23 24 24 23 23 23 22 23 27 50 61 65 70 73 75 78 81 83 77 72 79 74 67 75 81 80 79 79
45 36 39 46 52 53 48 48 43 41 34 33 36 35 29 26 26 24 23 23 21 22 23 26 29 49 60 59 70 70 72 74 77 77 73 82 75 86 82 86 88 86 84 85
45 30 37 44 47 49 54 42 44 42 45 45 31 40 24 20 22 26 26 27 26 23 24 23 30 41 63 64 64 66 70 73 74 77 73 80 71 82 83 95 94 93 92 96
73 55 43 46 44 44 46 37 44 46 50 47 43 50 31 23 26 23 25 28 28 26 26 27 32 40 49 61 70 72 73 75 77 79 74 80 72 77 85 88 88 91 93 94
52 39 40 39 39 45 43 45 45 47 49 63 44 45 31 22 23 22 23 23 24 24 28 32 36 46 52 74 78 77 78 79 81 83 80 78 80 79 82 84 84 85 93 92
76 57 38 40 46 41 48 60 98 98 92 66 35 43 37 28 20 19 23 24 26 26 34 39 49 67 69 79 84 85 85 89 92 91 88 81 80 79 80 77 76 84 87 82
94 97 70 49 47 50 55 55 82 79 64 50 39 44 31 22 21 21 23 22 23 29 38 44 53 60 70 79 88 89 89 91 95 93 90 80 77 76 77 78 68 73 72 76
96 95 56 48 44 42 58 77 68 80 72 79 42 32 27 22 22 26 23 24 27 32 45 52 56 64 67 78 87 90 93 92 91 85 83 83 79 75 75 75 69 67 75 76
65 87 51 56 47 44 48 54 96 96 98 86 48 45 39 34 26 23 24 28 31 37 43 56 65 69 71 72 78 88 86 86 84 79 76 75 70 69 69 68 71 75 77 76
68 82 78 64 70 73 68 68 82 81 85 71 56 38 28 30 28 29 26 24 26 38 48 58 61 65 67 70 76 84 80 78 78 74 69 70 68 64 63 64 72 76 78 76
79 87 98 85 56 53 56 63 77 92 98 78 70 58 26 32 32 30 30 30 30 38 48 56 59 64 66 69 74 76 74 74 69 64 64 64 66 63 69 72 76 80 79 79
96 95 98 78 69 61 67 56 55 61 68 70 78 56 37 31 37 39 37 41 46 52 60 58 60 60 61 66 68 68 67 63 58 52 58 65 68 68 74 80 81 80 80 82
84 100 100 90 87 90 73 71 54 58 82 64 62 44 42 41 38 38 45 51 57 61 60 56 57 58 57 62 63 62 60 54 51 53 57 67 70 74 78 81 82 82 79 79
91 96 96 94 89 83 86 97 85 69 63 74 53 47 41 34 35 41 43 55 58 61 61 55 54 55 54 58 58 55 56 54 52 57 60 70 76 79 85 84 82 82 80 78
78 81 70 86 66 52 86 66 83 84 82 68 54 50 34 34 34 35 46 50 55 56 57 56 52 49 49 52 52 51 54 56 57 62 70 75 78 86 85 84 83 81 79 77
83 78 79 82 51 77 90 73 57 84 88 73 81 54 41 40 40 36 35 47 48 50 53 56 53 49 47 49 48 52 54 60 61 68 73 77 81 81 84 81 78 82 85 82
75 81 81 85 71 90 46 35 58 88 81 84 85 47 38 38 36 36 37 37 44 45 50 52 50 47 44 43 44 51 57 60 66 72 74 80 81 82 81 80 81 86 86 86
64 77 86 91 76 59 47 34 36 47 63 51 82 60 52 48 46 42 31 30 34 43 46 47 46 44 42 41 43 54 58 62 67 76 77 78 81 83 85 83 86 85 86 88
57 66 80 82 87 80 40 24 26 27 48 29 39 50 39 44 64 49 35 33 38 38 38 41 43 43 42 42 50 56 58 61 67 78 81 79 80 83 86 88 90 87 85 87
85 90 94 90 88 63 37 28 26 58 52 30 31 34 63 69 63 49 38 34 38 37 37 39 41 41 40 44 51 53 58 61 68 78 82 81 80 85 86 88 88 89 89 90
80 90 90 90 94 90 33 33 47 37 33 32 33 39 60 63 60 59 53 40 39 39 36 38 41 38 39 45 48 48 55 58 73 79 80 82 84 84 87 91 94 92 95 97
68 63 72 70 71 52 38 40 40 32 35 62 69 62 59 57 52 50 52 50 41 37 35 34 35 38 41 44 41 48 52 68 74 80 80 81 84 87 88 91 95 97 97 97
53 47 63 66 52 50 48 42 64 58 55 44 40 51 56 57 51 51 51 48 42 39 36 34 34 39 46 46 42 43 65 67 72 79 82 84 88 92 92 91 94 97 98 98
52 59 60 61 48 40 38 37 36 38 40 42 45 51 51 50 52 58 57 51 47 40 35 33 37 42 47 46 44 56 65 68 77 82 81 86 88 92 97 95 96 97 99 97
55 55 68 65 43 45 41 37 39 49 48 43 44 51 48 55 61 61 66 53 47 42 35 36 38 42 46 44 53 63 66 66 74 81 81 85 92 96 97 97 99 96 95 94
Wind_Speed
7 9 24 24 19 15 9 17 18 6 6 3 12 15 16 19 9 11 13 13 12 14 18 16 11 17 19 18 18 20 19 18 13 10 10 9 10 9 8 8 12 11 9 10
9 25 18 10 17 16 19 21 22 7 5 5 14 25 22 19 20 19 18 18 17 15 14 16 16 12 18 20 21 20 20 20 16 12 11 6 8 8 9 8 8 9 10 10
26 32 16 17 15 20 23 25 17 16 7 14 11 27 29 19 24 24 21 20 20 19 19 17 17 16 16 20 20 21 22 20 17 16 11 7 9 5 7 8 7 8 9 8
19 25 19 21 24 20 22 14 15 15 9 14 8 24 24 17 20 23 21 18 19 22 20 20 17 16 18 20 18 20 20 20 18 20 15 16 12 10 6 6 6 6 7 6
17 14 24 18 24 19 15 13 13 14 16 15 19 14 24 18 25 23 20 18 19 20 20 19 19 19 20 15 17 17 18 18 18 20 18 15 14 8 8 7 10 9 7 8
16 12 17 27 14 17 9 2 6 2 7 15 16 19 34 23 25 21 24 24 22 20 18 17 15 13 13 13 15 16 18 18 18 17 17 18 17 14 12 10 9 8 6 6
15 20 12 7 15 19 21 14 4 6 7 16 12 16 34 3 9 20 20 21 22 18 15 16 16 16 16 17 16 14 16 16 14 15 15 18 17 16 16 15 10 11 9 7
11 8 24 18 27 15 25 20 8 11 11 8 17 22 18 16 21 19 18 21 19 16 16 18 20 18 17 18 16 15 16 15 14 14 13 13 14 9 9 9 11 8 10 10
7 9 11 13 14 19 10 19 20 5 1 4 10 22 14 18 18 12 14 14 16 16 16 19 17 16 16 18 19 17 15 15 14 14 12 11 10 13 13 13 12 10 12 11
11 10 10 18 19 20 18 17 10 8 8 9 16 22 16 4 18 21 21 17 15 12 13 13 14 15 12 14 16 15 15 16 14 15 13 12 14 14 13 13 13 14 13 14
20 13 3 15 17 20 14 13 5 8 8 11 17 16 6 20 19 15 20 22 17 12 13 13 12 12 13 15 15 15 15 17 15 14 13 14 13 15 14 13 13 14 14 13
12 8 10 18 9 20 24 23 19 8 12 10 11 25 9 9 13 17 20 13 15 13 12 12 13 15 16 17 16 16 15 15 14 14 16 16 15 15 14 13 15 15 15 12
9 5 12 17 16 21 25 25 24 24 2 24 13 23 6 10 3 5 11 9 5 7 9 11 12 14 14 15 16 14 14 15 16 18 17 15 15 14 14 14 14 14 14 14
8 6 6 10 3 8 25 20 29 28 17 25 25 35 7 6 2 2 4 0 2 6 10 11 12 14 15 16 17 17 15 17 18 17 17 17 16 15 15 14 14 14 14 14
6 6 7 9 14 20 17 14 16 30 30 24 34 32 25 21 7 2 3 3 6 10 13 15 15 15 16 16 16 16 16 17 17 17 17 16 15 15 14 15 14 13 12 12
4 10 12 18 19 16 25 21 19 24 26 30 35 35 20 11 12 13 8 8 10 11 13 13 14 16 18 19 18 17 18 18 18 18 18 17 17 15 15 15 14 13 13 12
5 7 5 19 9 4 12 17 15 10 14 24 26 42 13 23 18 18 15 11 13 12 14 17 18 18 18 20 19 18 18 18 18 17 17 17 16 17 16 16 15 14 13 13
11 11 8 16 6 15 14 11 9 12 17 15 29 40 17 22 17 13 13 17 17 13 14 15 15 15 17 17 17 18 18 18 17 16 17 17 17 17 17 16 14 14 12 12
17 12 8 8 11 17 20 14 15 11 20 12 20 33 22 20 22 23 23 23 18 17 17 18 19 18 18 21 20 20 20 19 19 18 17 17 18 18 16 15 15 14 13 12
23 20 13 9 11 11 17 10 18 21 26 27 21 27 18 10 15 21 15 13 13 19 19 18 19 20 20 20 21 22 21 20 19 17 17 15 17 18 17 16 15 13 12 11
11 14 20 18 16 10 21 14 11 16 19 14 17 22 8 9 9 20 16 13 18 21 19 16 20 23 25 24 24 24 23 22 18 17 17 15 15 16 16 16 12 12 12 11
12 12 10 13 13 17 19 10 16 20 33 19 22 20 15 14 13 13 18 19 13 18 18 20 19 22 24 25 25 26 24 20 20 19 17 15 15 11 12 15 11 12 11 10
13 11 8 13 11 15 12 13 14 21 20 7 10 13 14 17 12 13 12 16 17 20 18 20 22 22 21 25 26 26 24 23 21 19 17 15 14 12 13 14 13 10 10 9
11 10 11 9 19 20 22 12 11 11 16 14 16 17 19 20 18 16 13 14 15 19 21 20 21 22 23 23 23 23 24 22 22 21 16 14 14 13 12 9 9 9 9 8
11 10 15 15 20 21 23 21 16 17 20 22 18 17 21 22 20 16 15 15 15 19 18 21 23 22 24 25 24 23 24 24 20 19 14 14 11 13 11 9 10 10 10 11
9 12 10 15 15 13 21 14 12 15 18 20 20 18 20 20 18 14 15 13 14 18 20 21 23 22 23 25 22 25 27 26 24 17 13 12 11 10 10 9 7 5 9 11
Wind_Direction
188 197 217 210 214 235 239 224 232 231 226 250 248 252 240 256 234 228 231 241 236 238 253 265 246 208 202 198 192 192 188 189 179 178 179 193 197 191 195 196 196 201 197 200
187 229 216 204 196 218 231 241 240 242 257 259 273 275 254 249 256 240 241 244 245 236 243 251 248 206 201 195 195 192 194 186 186 180 184 192 181 194 196 191 194 198 200 201
201 230 205 194 195 209 225 232 238 249 247 255 276 281 268 239 245 252 244 241 245 239 236 236 240 218 203 202 194 195 194 188 186 180 172 147 152 150 181 186 176 192 195 192
222 226 196 205 219 201 233 214 233 239 229 253 199 268 262 268 250 233 243 234 237 238 232 235 232 221 207 207 196 197 190 186 185 180 182 180 182 179 182 154 145 143 126 113
218 207 206 211 216 192 247 244 219 218 232 265 234 261 268 247 244 239 228 225 222 229 230 227 226 217 213 202 198 188 185 184 184 184 185 178 184 162 142 128 134 112 103 101
213 199 195 222 213 193 193 121 135 222 221 246 237 224 270 246 247 244 235 234 228 225 221 224 227 227 203 191 186 182 181 186 185 185 186 181 171 150 145 146 137 129 114 108
221 222 205 185 203 206 200 189 181 206 209 246 184 219 247 290 252 240 237 238 239 230 220 221 208 204 188 185 182 178 176 179 176 175 180 179 166 159 155 153 144 140 128 130
201 197 209 209 217 198 206 197 190 207 216 265 203 239 243 229 240 232 223 232 243 227 214 208 210 207 195 185 180 176 176 170 167 165 161 154 152 148 140 145 142 150 133 131
211 223 193 196 192 186 173 208 201 221 348 294 232 255 248 244 246 234 234 235 233 217 202 204 210 201 193 183 180 176 162 152 149 147 139 141 134 139 142 137 139 137 128 126
227 276 223 195 203 208 201 167 188 204 191 230 245 259 245 236 232 232 230 227 230 213 212 196 191 195 186 182 172 162 159 151 148 147 145 141 144 135 133 138 136 135 129 130
229 236 227 183 198 185 203 205 172 174 208 232 267 258 211 222 220 227 227 233 233 215 201 193 187 181 175 167 166 154 151 147 146 138 134 134 135 138 140 135 133 129 128 130
253 215 228 229 209 213 203 200 185 188 192 235 285 268 168 196 208 219 231 228 233 222 199 185 177 169 168 166 163 158 152 146 144 138 138 140 140 143 136 135 136 135 132 128
356 277 225 240 243 237 211 210 205 220 223 212 203 263 298 197 188 228 233 224 206 179 159 156 162 169 168 166 163 155 151 145 143 144 139 138 138 134 130 130 131 127 128 123
161 227 302 263 331 336 222 227 221 214 214 233 223 241 56 89 216 233 235 0 145 161 167 175 174 176 171 166 162 159 152 150 145 142 143 141 141 138 135 129 128 130 131 128
160 256 310 314 329 332 315 312 272 223 218 220 235 240 231 248 270 267 276 180 177 180 181 189 184 178 170 166 161 157 151 149 146 142 141 137 133 130 125 128 131 131 130 129
184 264 278 283 287 284 292 289 290 288 258 225 245 253 237 235 227 226 219 206 216 204 199 187 181 179 173 169 167 157 154 152 149 144 142 141 138 134 135 132 134 138 136 132
201 269 251 263 277 310 281 267 246 268 292 243 241 245 227 242 222 227 234 224 222 211 200 185 186 184 178 176 168 164 156 148 149 145 145 143 140 139 140 142 146 144 141 138
236 228 240 269 303 257 245 230 260 248 269 284 293 267 257 257 255 242 221 228 224 203 195 197 190 183 180 171 165 156 154 154 148 147 149 147 145 137 144 148 148 141 143 145
209 216 242 245 235 277 273 247 246 246 274 271 284 288 287 288 280 270 244 233 226 203 196 194 192 185 172 172 165 158 158 155 154 155 156 155 144 144 148 153 149 146 154 153
212 218 216 223 247 249 271 251 222 248 262 264 251 268 287 276 268 263 258 219 213 201 204 197 184 176 173 169 162 161 163 163 161 159 155 157 148 152 156 150 151 160 157 144
187 201 214 221 240 255 258 260 229 226 253 249 248 264 272 278 285 305 252 228 201 203 206 186 178 180 175 168 165 168 166 172 160 149 146 156 157 154 151 149 156 150 144 149
170 171 203 221 226 242 235 228 219 224 244 259 249 245 249 255 275 295 307 259 216 200 195 186 183 182 173 171 172 168 172 158 150 146 145 160 150 150 150 150 142 140 146 152
208 204 186 192 212 237 232 198 209 229 261 263 234 252 250 260 259 280 281 298 224 202 196 192 187 174 177 177 177 171 160 153 147 144 153 156 148 151 152 145 145 146 155 164
230 212 225 222 234 242 250 217 220 246 258 266 270 264 264 268 273 278 279 277 261 210 193 185 178 175 175 179 178 170 151 150 146 140 154 154 149 151 146 145 153 158 165 171
216 173 223 243 249 255 264 253 251 247 261 272 266 254 254 263 261 260 268 272 279 218 193 179 177 176 176 172 169 153 152 146 144 135 158 162 154 152 150 160 165 172 180 181
200 222 212 237 249 245 260 272 259 246 249 263 267 266 265 258 262 261 262 271 269 212 191 180 178 173 169 168 160 157 152 147 139 147 162 162 155 152 160 154 143 157 181 179